Year,Month,Day,Hour,Minute,Value (Times are PST for temperature in C)
2015,07,04,00,00,18.90
2015,07,04,00,01,18.90
2015,07,04,00,02,18.90
2015,07,04,00,03,18.90
2015,07,04,00,04,18.90
2015,07,04,00,05,18.90
2015,07,04,00,06,18.80
2015,07,04,00,07,18.80
2015,07,04,00,08,18.80
2015,07,04,00,09,18.80
2015,07,04,00,10,18.80
2015,07,04,00,11,18.80
2015,07,04,00,12,18.80
2015,07,04,00,13,18.80
2015,07,04,00,14,18.70
2015,07,04,00,15,18.70
2015,07,04,00,16,18.70
2015,07,04,00,17,18.70
2015,07,04,00,18,18.70
2015,07,04,00,19,18.70
2015,07,04,00,20,18.70
2015,07,04,00,21,18.60
2015,07,04,00,22,18.60
2015,07,04,00,23,18.60
2015,07,04,00,24,18.60
2015,07,04,00,25,18.60
2015,07,04,00,26,18.60
2015,07,04,00,27,18.60
2015,07,04,00,28,18.50
2015,07,04,00,29,18.50
2015,07,04,00,30,18.50
2015,07,04,00,31,18.50
2015,07,04,00,32,18.50
2015,07,04,00,33,18.50
2015,07,04,00,34,18.40
2015,07,04,00,35,18.40
2015,07,04,00,36,18.40
2015,07,04,00,37,18.40
2015,07,04,00,38,18.40
2015,07,04,00,39,18.40
2015,07,04,00,40,18.30
2015,07,04,00,41,18.30
2015,07,04,00,42,18.30
2015,07,04,00,43,18.30
2015,07,04,00,44,18.30
2015,07,04,00,45,18.30
2015,07,04,00,46,18.20
2015,07,04,00,47,18.20
2015,07,04,00,48,18.20
2015,07,04,00,49,18.20
2015,07,04,00,50,18.20
2015,07,04,00,51,18.20
2015,07,04,00,52,18.20
2015,07,04,00,53,18.20
2015,07,04,00,54,18.20
2015,07,04,00,55,18.20
2015,07,04,00,56,18.20
2015,07,04,00,57,18.20
2015,07,04,00,58,18.20
2015,07,04,00,59,18.20
2015,07,04,01,00,18.10
2015,07,04,01,01,18.10
2015,07,04,01,02,18.10
2015,07,04,01,03,18.10
2015,07,04,01,04,18.10
2015,07,04,01,05,18.10
2015,07,04,01,06,18.10
2015,07,04,01,07,18.10
2015,07,04,01,08,18.00
2015,07,04,01,09,17.90
2015,07,04,01,10,17.90
2015,07,04,01,11,17.90
2015,07,04,01,12,17.90
2015,07,04,01,13,17.90
2015,07,04,01,14,17.90
2015,07,04,01,15,17.90
2015,07,04,01,16,17.90
2015,07,04,01,17,17.90
2015,07,04,01,18,17.90
2015,07,04,01,19,17.90
2015,07,04,01,20,17.90
2015,07,04,01,21,17.90
2015,07,04,01,22,17.90
2015,07,04,01,23,17.90
2015,07,04,01,24,17.90
2015,07,04,01,25,17.90
2015,07,04,01,26,17.80
2015,07,04,01,27,17.80
2015,07,04,01,28,17.80
2015,07,04,01,29,17.80
2015,07,04,01,30,17.80
2015,07,04,01,31,17.80
2015,07,04,01,32,17.80
2015,07,04,01,33,17.80
2015,07,04,01,34,17.80
2015,07,04,01,35,17.70
2015,07,04,01,36,17.70
2015,07,04,01,37,17.70
2015,07,04,01,38,17.70
2015,07,04,01,39,17.70
2015,07,04,01,40,17.70
2015,07,04,01,41,17.70
2015,07,04,01,42,17.70
2015,07,04,01,43,17.70
2015,07,04,01,44,17.60
2015,07,04,01,45,17.60
2015,07,04,01,46,17.60
2015,07,04,01,47,17.60
2015,07,04,01,48,17.60
2015,07,04,01,49,17.60
2015,07,04,01,50,17.50
2015,07,04,01,51,17.50
2015,07,04,01,52,17.50
2015,07,04,01,53,17.50
2015,07,04,01,54,17.40
2015,07,04,01,55,17.40
2015,07,04,01,56,17.40
2015,07,04,01,57,17.40
2015,07,04,01,58,17.40
2015,07,04,01,59,17.40
2015,07,04,02,00,17.30
2015,07,04,02,01,17.30
2015,07,04,02,02,17.30
2015,07,04,02,03,17.30
2015,07,04,02,04,17.30
2015,07,04,02,05,17.30
2015,07,04,02,06,17.30
2015,07,04,02,07,17.30
2015,07,04,02,08,17.30
2015,07,04,02,09,17.30
2015,07,04,02,10,17.20
2015,07,04,02,11,17.20
2015,07,04,02,12,17.20
2015,07,04,02,13,17.10
2015,07,04,02,14,17.10
2015,07,04,02,15,17.10
2015,07,04,02,16,17.00
2015,07,04,02,17,17.00
2015,07,04,02,18,17.00
2015,07,04,02,19,17.00
2015,07,04,02,20,17.00
2015,07,04,02,21,16.90
2015,07,04,02,22,16.90
2015,07,04,02,23,16.90
2015,07,04,02,24,16.90
2015,07,04,02,25,16.90
2015,07,04,02,26,16.90
2015,07,04,02,27,16.90
2015,07,04,02,28,16.80
2015,07,04,02,29,16.80
2015,07,04,02,30,16.80
2015,07,04,02,31,16.80
2015,07,04,02,32,16.70
2015,07,04,02,33,16.70
2015,07,04,02,34,16.70
2015,07,04,02,35,16.70
2015,07,04,02,36,16.70
2015,07,04,02,37,16.70
2015,07,04,02,38,16.70
2015,07,04,02,39,16.70
2015,07,04,02,40,16.70
2015,07,04,02,41,16.70
2015,07,04,02,42,16.60
2015,07,04,02,43,16.60
2015,07,04,02,44,16.60
2015,07,04,02,45,16.60
2015,07,04,02,46,16.50
2015,07,04,02,47,16.40
2015,07,04,02,48,16.40
2015,07,04,02,49,16.40
2015,07,04,02,50,16.40
2015,07,04,02,51,16.40
2015,07,04,02,52,16.40
2015,07,04,02,53,16.40
2015,07,04,02,54,16.40
2015,07,04,02,55,16.40
2015,07,04,02,56,16.30
2015,07,04,02,57,16.30
2015,07,04,02,58,16.30
2015,07,04,02,59,16.30
2015,07,04,03,00,16.30
2015,07,04,03,01,16.20
2015,07,04,03,02,16.20
2015,07,04,03,03,16.20
2015,07,04,03,04,16.20
2015,07,04,03,05,16.20
2015,07,04,03,06,16.20
2015,07,04,03,07,16.20
2015,07,04,03,08,16.20
2015,07,04,03,09,16.20
2015,07,04,03,10,16.20
2015,07,04,03,11,16.10
2015,07,04,03,12,16.10
2015,07,04,03,13,16.10
2015,07,04,03,14,16.10
2015,07,04,03,15,16.10
2015,07,04,03,16,16.10
2015,07,04,03,17,16.10
2015,07,04,03,18,16.10
2015,07,04,03,19,16.10
2015,07,04,03,20,16.10
2015,07,04,03,21,16.10
2015,07,04,03,22,16.00
2015,07,04,03,23,15.90
2015,07,04,03,24,15.90
2015,07,04,03,25,15.90
2015,07,04,03,26,15.80
2015,07,04,03,27,15.80
2015,07,04,03,28,15.80
2015,07,04,03,29,15.80
2015,07,04,03,30,15.80
2015,07,04,03,31,15.80
2015,07,04,03,32,15.70
2015,07,04,03,33,15.70
2015,07,04,03,34,15.70
2015,07,04,03,35,15.70
2015,07,04,03,36,15.60
2015,07,04,03,37,15.60
2015,07,04,03,38,15.60
2015,07,04,03,39,15.50
2015,07,04,03,40,15.50
2015,07,04,03,41,15.50
2015,07,04,03,42,15.50
2015,07,04,03,43,15.40
2015,07,04,03,44,15.40
2015,07,04,03,45,15.40
2015,07,04,03,46,15.40
2015,07,04,03,47,15.30
2015,07,04,03,48,15.30
2015,07,04,03,49,15.30
2015,07,04,03,50,15.30
2015,07,04,03,51,15.30
2015,07,04,03,52,15.30
2015,07,04,03,53,15.20
2015,07,04,03,54,15.20
2015,07,04,03,55,15.20
2015,07,04,03,56,15.20
2015,07,04,03,57,15.20
2015,07,04,03,58,15.20
2015,07,04,03,59,15.20
2015,07,04,04,00,15.20
2015,07,04,04,01,15.20
2015,07,04,04,02,15.10
2015,07,04,04,03,15.10
2015,07,04,04,04,15.10
2015,07,04,04,05,15.10
2015,07,04,04,06,15.10
2015,07,04,04,07,15.00
2015,07,04,04,08,15.00
2015,07,04,04,09,15.00
2015,07,04,04,10,15.00
2015,07,04,04,11,14.90
2015,07,04,04,12,14.90
2015,07,04,04,13,14.90
2015,07,04,04,14,14.90
2015,07,04,04,15,14.90
2015,07,04,04,16,14.90
2015,07,04,04,17,14.80
2015,07,04,04,18,14.80
2015,07,04,04,19,14.80
2015,07,04,04,20,14.80
2015,07,04,04,21,14.80
2015,07,04,04,22,14.70
2015,07,04,04,23,14.70
2015,07,04,04,24,14.70
2015,07,04,04,25,14.60
2015,07,04,04,26,14.60
2015,07,04,04,27,14.60
2015,07,04,04,28,14.60
2015,07,04,04,29,14.50
2015,07,04,04,30,14.50
2015,07,04,04,31,14.50
2015,07,04,04,32,14.50
2015,07,04,04,33,14.50
2015,07,04,04,34,14.50
2015,07,04,04,35,14.50
2015,07,04,04,36,14.40
2015,07,04,04,37,14.40
2015,07,04,04,38,14.40
2015,07,04,04,39,14.40
2015,07,04,04,40,14.40
2015,07,04,04,41,14.40
2015,07,04,04,42,14.40
2015,07,04,04,43,14.40
2015,07,04,04,44,14.30
2015,07,04,04,45,14.30
2015,07,04,04,46,14.30
2015,07,04,04,47,14.30
2015,07,04,04,48,14.30
2015,07,04,04,49,14.30
2015,07,04,04,50,14.30
2015,07,04,04,51,14.20
2015,07,04,04,52,14.20
2015,07,04,04,53,14.20
2015,07,04,04,54,14.20
2015,07,04,04,55,14.20
2015,07,04,04,56,14.20
2015,07,04,04,57,14.20
2015,07,04,04,58,14.20
2015,07,04,04,59,14.20
2015,07,04,05,00,14.20
2015,07,04,05,01,14.20
2015,07,04,05,02,14.20
2015,07,04,05,03,14.20
2015,07,04,05,04,14.20
2015,07,04,05,05,14.10
2015,07,04,05,06,14.10
2015,07,04,05,07,14.10
2015,07,04,05,08,14.10
2015,07,04,05,09,14.10
2015,07,04,05,10,14.10
2015,07,04,05,11,14.10
2015,07,04,05,12,14.00
2015,07,04,05,13,14.00
2015,07,04,05,14,14.00
2015,07,04,05,15,14.00
2015,07,04,05,16,14.00
2015,07,04,05,17,14.00
2015,07,04,05,18,14.00
2015,07,04,05,19,14.00
2015,07,04,05,20,14.00
2015,07,04,05,21,14.00
2015,07,04,05,22,14.00
2015,07,04,05,23,14.00
2015,07,04,05,24,14.00
2015,07,04,05,25,14.00
2015,07,04,05,26,14.00
2015,07,04,05,27,14.00
2015,07,04,05,28,14.00
2015,07,04,05,29,14.00
2015,07,04,05,30,14.00
2015,07,04,05,31,14.00
2015,07,04,05,32,14.00
2015,07,04,05,33,14.10
2015,07,04,05,34,14.10
2015,07,04,05,35,14.10
2015,07,04,05,36,14.10
2015,07,04,05,37,14.10
2015,07,04,05,38,14.10
2015,07,04,05,39,14.20
2015,07,04,05,40,14.20
2015,07,04,05,41,14.20
2015,07,04,05,42,14.20
2015,07,04,05,43,14.20
2015,07,04,05,44,14.20
2015,07,04,05,45,14.20
2015,07,04,05,46,14.30
2015,07,04,05,47,14.30
2015,07,04,05,48,14.40
2015,07,04,05,49,14.40
2015,07,04,05,50,14.50
2015,07,04,05,51,14.50
2015,07,04,05,52,14.50
2015,07,04,05,53,14.60
2015,07,04,05,54,14.60
2015,07,04,05,55,14.70
2015,07,04,05,56,14.70
2015,07,04,05,57,14.80
2015,07,04,05,58,14.80
2015,07,04,05,59,14.80
2015,07,04,06,00,14.90
2015,07,04,06,01,15.00
2015,07,04,06,02,15.00
2015,07,04,06,03,15.10
2015,07,04,06,04,15.10
2015,07,04,06,05,15.20
2015,07,04,06,06,15.20
2015,07,04,06,07,15.30
2015,07,04,06,08,15.30
2015,07,04,06,09,15.30
2015,07,04,06,10,15.30
2015,07,04,06,11,15.30
2015,07,04,06,12,15.30
2015,07,04,06,13,15.30
2015,07,04,06,14,15.30
2015,07,04,06,15,15.30
2015,07,04,06,16,15.30
2015,07,04,06,17,15.40
2015,07,04,06,18,15.40
2015,07,04,06,19,15.40
2015,07,04,06,20,15.50
2015,07,04,06,21,15.50
2015,07,04,06,22,15.50
2015,07,04,06,23,15.50
2015,07,04,06,24,15.60
2015,07,04,06,25,15.60
2015,07,04,06,26,15.60
2015,07,04,06,27,15.60
2015,07,04,06,28,15.60
2015,07,04,06,29,15.60
2015,07,04,06,30,15.60
2015,07,04,06,31,15.60
2015,07,04,06,32,15.70
2015,07,04,06,33,15.80
2015,07,04,06,34,15.80
2015,07,04,06,35,15.90
2015,07,04,06,36,16.00
2015,07,04,06,37,16.10
2015,07,04,06,38,16.20
2015,07,04,06,39,16.40
2015,07,04,06,40,16.40
2015,07,04,06,41,16.50
2015,07,04,06,42,16.60
2015,07,04,06,43,16.70
2015,07,04,06,44,16.70
2015,07,04,06,45,16.80
2015,07,04,06,46,16.90
2015,07,04,06,47,16.90
2015,07,04,06,48,17.00
2015,07,04,06,49,17.10
2015,07,04,06,50,17.30
2015,07,04,06,51,17.30
2015,07,04,06,52,17.30
2015,07,04,06,53,17.40
2015,07,04,06,54,17.50
2015,07,04,06,55,17.50
2015,07,04,06,56,17.60
2015,07,04,06,57,17.70
2015,07,04,06,58,17.80
2015,07,04,06,59,17.90
2015,07,04,07,00,18.00
2015,07,04,07,01,18.10
2015,07,04,07,02,18.20
2015,07,04,07,03,18.30
2015,07,04,07,04,18.40
2015,07,04,07,05,18.50
2015,07,04,07,06,18.60
2015,07,04,07,07,18.70
2015,07,04,07,08,18.80
2015,07,04,07,09,18.90
2015,07,04,07,10,18.90
2015,07,04,07,11,19.10
2015,07,04,07,12,19.10
2015,07,04,07,13,19.20
2015,07,04,07,14,19.30
2015,07,04,07,15,19.40
2015,07,04,07,16,19.40
2015,07,04,07,17,19.50
2015,07,04,07,18,19.60
2015,07,04,07,19,19.60
2015,07,04,07,20,19.70
2015,07,04,07,21,19.80
2015,07,04,07,22,19.80
2015,07,04,07,23,19.90
2015,07,04,07,24,19.90
2015,07,04,07,25,19.90
2015,07,04,07,26,20.00
2015,07,04,07,27,20.10
2015,07,04,07,28,20.10
2015,07,04,07,29,20.10
2015,07,04,07,30,20.20
2015,07,04,07,31,20.20
2015,07,04,07,32,20.20
2015,07,04,07,33,20.20
2015,07,04,07,34,20.30
2015,07,04,07,35,20.40
2015,07,04,07,36,20.40
2015,07,04,07,37,20.50
2015,07,04,07,38,20.50
2015,07,04,07,39,20.50
2015,07,04,07,40,20.50
2015,07,04,07,41,20.60
2015,07,04,07,42,20.60
2015,07,04,07,43,20.60
2015,07,04,07,44,20.70
2015,07,04,07,45,20.70
2015,07,04,07,46,20.70
2015,07,04,07,47,20.80
2015,07,04,07,48,20.80
2015,07,04,07,49,20.80
2015,07,04,07,50,20.80
2015,07,04,07,51,20.90
2015,07,04,07,52,20.90
2015,07,04,07,53,20.90
2015,07,04,07,54,21.00
2015,07,04,07,55,21.00
2015,07,04,07,56,21.00
2015,07,04,07,57,21.00
2015,07,04,07,58,21.10
2015,07,04,07,59,21.10
2015,07,04,08,00,21.10
2015,07,04,08,01,21.20
2015,07,04,08,02,21.20
2015,07,04,08,03,21.20
2015,07,04,08,04,21.30
2015,07,04,08,05,21.30
2015,07,04,08,06,21.30
2015,07,04,08,07,21.30
2015,07,04,08,08,21.40
2015,07,04,08,09,21.40
2015,07,04,08,10,21.40
2015,07,04,08,11,21.50
2015,07,04,08,12,21.60
2015,07,04,08,13,21.60
2015,07,04,08,14,21.60
2015,07,04,08,15,21.60
2015,07,04,08,16,21.60
2015,07,04,08,17,21.60
2015,07,04,08,18,21.60
2015,07,04,08,19,21.70
2015,07,04,08,20,21.70
2015,07,04,08,21,21.70
2015,07,04,08,22,21.70
2015,07,04,08,23,21.70
2015,07,04,08,24,21.80
2015,07,04,08,25,21.80
2015,07,04,08,26,21.80
2015,07,04,08,27,21.80
2015,07,04,08,28,21.90
2015,07,04,08,29,21.90
2015,07,04,08,30,22.00
2015,07,04,08,31,22.00
2015,07,04,08,32,22.00
2015,07,04,08,33,22.00
2015,07,04,08,34,22.10
2015,07,04,08,35,22.10
2015,07,04,08,36,22.10
2015,07,04,08,37,22.20
2015,07,04,08,38,22.20
2015,07,04,08,39,22.20
2015,07,04,08,40,22.30
2015,07,04,08,41,22.30
2015,07,04,08,42,22.30
2015,07,04,08,43,22.30
2015,07,04,08,44,22.30
2015,07,04,08,45,22.30
2015,07,04,08,46,22.40
2015,07,04,08,47,22.40
2015,07,04,08,48,22.40
2015,07,04,08,49,22.40
2015,07,04,08,50,22.40
2015,07,04,08,51,22.50
2015,07,04,08,52,22.50
2015,07,04,08,53,22.50
2015,07,04,08,54,22.50
2015,07,04,08,55,22.50
2015,07,04,08,56,22.60
2015,07,04,08,57,22.60
2015,07,04,08,58,22.60
2015,07,04,08,59,22.50
2015,07,04,09,00,22.60
2015,07,04,09,01,22.60
2015,07,04,09,02,22.60
2015,07,04,09,03,22.60
2015,07,04,09,04,22.60
2015,07,04,09,05,22.70
2015,07,04,09,06,22.70
2015,07,04,09,07,22.80
2015,07,04,09,08,22.90
2015,07,04,09,09,22.90
2015,07,04,09,10,22.90
2015,07,04,09,11,22.90
2015,07,04,09,12,23.00
2015,07,04,09,13,23.10
2015,07,04,09,14,23.10
2015,07,04,09,15,23.10
2015,07,04,09,16,23.20
2015,07,04,09,17,23.20
2015,07,04,09,18,23.20
2015,07,04,09,19,23.30
2015,07,04,09,20,23.30
2015,07,04,09,21,23.30
2015,07,04,09,22,23.30
2015,07,04,09,23,23.30
2015,07,04,09,24,23.40
2015,07,04,09,25,23.40
2015,07,04,09,26,23.40
2015,07,04,09,27,23.40
2015,07,04,09,28,23.50
2015,07,04,09,29,23.60
2015,07,04,09,30,23.70
2015,07,04,09,31,23.70
2015,07,04,09,32,23.70
2015,07,04,09,33,23.70
2015,07,04,09,34,23.80
2015,07,04,09,35,23.90
2015,07,04,09,36,24.00
2015,07,04,09,37,24.10
2015,07,04,09,38,24.10
2015,07,04,09,39,24.10
2015,07,04,09,40,24.10
2015,07,04,09,41,24.20
2015,07,04,09,42,24.20
2015,07,04,09,43,24.20
2015,07,04,09,44,24.30
2015,07,04,09,45,24.30
2015,07,04,09,46,24.30
2015,07,04,09,47,24.30
2015,07,04,09,48,24.40
2015,07,04,09,49,24.40
2015,07,04,09,50,24.40
2015,07,04,09,51,24.50
2015,07,04,09,52,24.50
2015,07,04,09,53,24.50
2015,07,04,09,54,24.50
2015,07,04,09,55,24.60
2015,07,04,09,56,24.60
2015,07,04,09,57,24.60
2015,07,04,09,58,24.60
2015,07,04,09,59,24.60
2015,07,04,10,00,24.70
2015,07,04,10,01,24.70
2015,07,04,10,02,24.70
2015,07,04,10,03,24.70
2015,07,04,10,04,24.70
2015,07,04,10,05,24.60
2015,07,04,10,06,24.60
2015,07,04,10,07,24.60
2015,07,04,10,08,24.60
2015,07,04,10,09,24.60
2015,07,04,10,10,24.50
2015,07,04,10,11,24.50
2015,07,04,10,12,24.60
2015,07,04,10,13,24.70
2015,07,04,10,14,24.70
2015,07,04,10,15,24.70
2015,07,04,10,16,24.80
2015,07,04,10,17,24.70
2015,07,04,10,18,24.70
2015,07,04,10,19,24.70
2015,07,04,10,20,24.70
2015,07,04,10,21,24.80
2015,07,04,10,22,24.80
2015,07,04,10,23,24.90
2015,07,04,10,24,25.00
2015,07,04,10,25,25.00
2015,07,04,10,26,25.10
2015,07,04,10,27,25.10
2015,07,04,10,28,25.10
2015,07,04,10,29,25.20
2015,07,04,10,30,25.20
2015,07,04,10,31,25.20
2015,07,04,10,32,25.20
2015,07,04,10,33,25.20
2015,07,04,10,34,25.20
2015,07,04,10,35,25.20
2015,07,04,10,36,25.10
2015,07,04,10,37,25.00
2015,07,04,10,38,25.00
2015,07,04,10,39,24.90
2015,07,04,10,40,24.90
2015,07,04,10,41,24.90
2015,07,04,10,42,24.90
2015,07,04,10,43,25.00
2015,07,04,10,44,25.00
2015,07,04,10,45,25.10
2015,07,04,10,46,25.20
2015,07,04,10,47,25.20
2015,07,04,10,48,25.30
2015,07,04,10,49,25.30
2015,07,04,10,50,25.40
2015,07,04,10,51,25.50
2015,07,04,10,52,25.60
2015,07,04,10,53,25.60
2015,07,04,10,54,25.70
2015,07,04,10,55,25.80
2015,07,04,10,56,25.90
2015,07,04,10,57,25.90
2015,07,04,10,58,26.00
2015,07,04,10,59,26.10
2015,07,04,11,00,26.20
2015,07,04,11,01,26.20
2015,07,04,11,02,26.20
2015,07,04,11,03,26.30
2015,07,04,11,04,26.30
2015,07,04,11,05,26.40
2015,07,04,11,06,26.40
2015,07,04,11,07,26.60
2015,07,04,11,08,26.60
2015,07,04,11,09,26.60
2015,07,04,11,10,26.60
2015,07,04,11,11,26.60
2015,07,04,11,12,26.60
2015,07,04,11,13,26.60
2015,07,04,11,14,26.50
2015,07,04,11,15,26.40
2015,07,04,11,16,26.40
2015,07,04,11,17,26.50
2015,07,04,11,18,26.60
2015,07,04,11,19,26.60
2015,07,04,11,20,26.60
2015,07,04,11,21,26.50
2015,07,04,11,22,26.40
2015,07,04,11,23,26.50
2015,07,04,11,24,26.60
2015,07,04,11,25,26.60
2015,07,04,11,26,26.60
2015,07,04,11,27,26.60
2015,07,04,11,28,26.60
2015,07,04,11,29,26.60
2015,07,04,11,30,26.60
2015,07,04,11,31,26.60
2015,07,04,11,32,26.70
2015,07,04,11,33,26.70
2015,07,04,11,34,26.70
2015,07,04,11,35,26.80
2015,07,04,11,36,26.70
2015,07,04,11,37,26.70
2015,07,04,11,38,26.60
2015,07,04,11,39,26.60
2015,07,04,11,40,26.50
2015,07,04,11,41,26.30
2015,07,04,11,42,26.10
2015,07,04,11,43,26.00
2015,07,04,11,44,25.80
2015,07,04,11,45,25.80
2015,07,04,11,46,25.90
2015,07,04,11,47,25.90
2015,07,04,11,48,25.90
2015,07,04,11,49,25.90
2015,07,04,11,50,26.00
2015,07,04,11,51,26.10
2015,07,04,11,52,26.20
2015,07,04,11,53,26.20
2015,07,04,11,54,26.30
2015,07,04,11,55,26.40
2015,07,04,11,56,26.40
2015,07,04,11,57,26.60
2015,07,04,11,58,26.60
2015,07,04,11,59,26.60
2015,07,04,12,00,26.60
2015,07,04,12,01,26.50
2015,07,04,12,02,26.40
2015,07,04,12,03,26.40
2015,07,04,12,04,26.20
2015,07,04,12,05,26.00
2015,07,04,12,06,26.00
2015,07,04,12,07,26.00
2015,07,04,12,08,26.00
2015,07,04,12,09,26.10
2015,07,04,12,10,26.20
2015,07,04,12,11,26.20
2015,07,04,12,12,26.30
2015,07,04,12,13,26.30
2015,07,04,12,14,26.30
2015,07,04,12,15,26.20
2015,07,04,12,16,26.10
2015,07,04,12,17,26.00
2015,07,04,12,18,25.90
2015,07,04,12,19,25.80
2015,07,04,12,20,25.70
2015,07,04,12,21,25.70
2015,07,04,12,22,25.70
2015,07,04,12,23,25.60
2015,07,04,12,24,25.70
2015,07,04,12,25,25.70
2015,07,04,12,26,25.80
2015,07,04,12,27,25.70
2015,07,04,12,28,25.70
2015,07,04,12,29,25.90
2015,07,04,12,30,26.00
2015,07,04,12,31,26.20
2015,07,04,12,32,26.20
2015,07,04,12,33,26.20
2015,07,04,12,34,26.20
2015,07,04,12,35,26.30
2015,07,04,12,36,26.30
2015,07,04,12,37,26.30
2015,07,04,12,38,26.30
2015,07,04,12,39,26.30
2015,07,04,12,40,26.40
2015,07,04,12,41,26.60
2015,07,04,12,42,26.70
2015,07,04,12,43,26.90
2015,07,04,12,44,27.10
2015,07,04,12,45,27.30
2015,07,04,12,46,27.40
2015,07,04,12,47,27.50
2015,07,04,12,48,27.60
2015,07,04,12,49,27.60
2015,07,04,12,50,27.60
2015,07,04,12,51,27.60
2015,07,04,12,52,27.60
2015,07,04,12,53,27.60
2015,07,04,12,54,27.70
2015,07,04,12,55,27.80
2015,07,04,12,56,27.80
2015,07,04,12,57,27.90
2015,07,04,12,58,28.10
2015,07,04,12,59,28.30
2015,07,04,13,00,28.60
2015,07,04,13,01,28.70
2015,07,04,13,02,28.80
2015,07,04,13,03,28.80
2015,07,04,13,04,28.70
2015,07,04,13,05,28.70
2015,07,04,13,06,28.70
2015,07,04,13,07,28.70
2015,07,04,13,08,28.70
2015,07,04,13,09,28.70
2015,07,04,13,10,28.80
2015,07,04,13,11,28.90
2015,07,04,13,12,28.90
2015,07,04,13,13,28.90
2015,07,04,13,14,28.90
2015,07,04,13,15,28.90
2015,07,04,13,16,28.90
2015,07,04,13,17,28.90
2015,07,04,13,18,28.90
2015,07,04,13,19,28.90
2015,07,04,13,20,28.90
2015,07,04,13,21,28.80
2015,07,04,13,22,28.80
2015,07,04,13,23,28.70
2015,07,04,13,24,28.60
2015,07,04,13,25,28.50
2015,07,04,13,26,28.40
2015,07,04,13,27,28.40
2015,07,04,13,28,28.30
2015,07,04,13,29,28.10
2015,07,04,13,30,27.90
2015,07,04,13,31,27.80
2015,07,04,13,32,27.70
2015,07,04,13,33,27.40
2015,07,04,13,34,27.20
2015,07,04,13,35,27.10
2015,07,04,13,36,27.00
2015,07,04,13,37,26.90
2015,07,04,13,38,27.00
2015,07,04,13,39,27.10
2015,07,04,13,40,27.10
2015,07,04,13,41,27.20
2015,07,04,13,42,27.20
2015,07,04,13,43,27.20
2015,07,04,13,44,27.20
2015,07,04,13,45,27.20
2015,07,04,14,20,26.40
2015,07,04,14,21,26.60
2015,07,04,14,22,26.80
2015,07,04,14,23,26.90
2015,07,04,14,24,26.90
2015,07,04,14,25,26.90
2015,07,04,14,26,27.00
2015,07,04,14,27,27.10
2015,07,04,14,28,27.10
2015,07,04,14,29,27.10
2015,07,04,14,30,27.10
2015,07,04,14,31,27.20
2015,07,04,14,32,27.30
2015,07,04,14,33,27.30
2015,07,04,14,34,27.40
2015,07,04,14,35,27.50
2015,07,04,14,36,27.60
2015,07,04,14,37,27.60
2015,07,04,14,38,27.60
2015,07,04,14,39,27.60
2015,07,04,14,40,27.60
2015,07,04,14,41,27.60
2015,07,04,14,42,27.70
2015,07,04,14,43,27.80
2015,07,04,14,44,27.90
2015,07,04,14,45,28.00
2015,07,04,14,46,28.10
2015,07,04,14,47,28.30
2015,07,04,14,48,28.30
2015,07,04,14,49,28.40
2015,07,04,14,50,28.50
2015,07,04,14,51,28.60
2015,07,04,14,52,28.70
2015,07,04,14,53,28.70
2015,07,04,14,54,28.60
2015,07,04,14,55,28.50
2015,07,04,14,56,28.40
2015,07,04,14,57,28.30
2015,07,04,14,58,28.30
2015,07,04,14,59,28.20
2015,07,04,15,00,28.20
2015,07,04,15,01,28.20
2015,07,04,15,02,28.20
2015,07,04,15,03,28.20
2015,07,04,15,04,28.20
2015,07,04,15,05,28.30
2015,07,04,15,06,28.50
2015,07,04,15,07,28.70
2015,07,04,15,08,28.80
2015,07,04,15,09,28.90
2015,07,04,15,10,28.90
2015,07,04,15,11,28.80
2015,07,04,15,12,28.80
2015,07,04,15,13,28.80
2015,07,04,15,14,28.80
2015,07,04,15,15,28.80
2015,07,04,15,16,28.80
2015,07,04,15,17,28.80
2015,07,04,15,18,28.90
2015,07,04,15,19,28.90
2015,07,04,15,20,28.90
2015,07,04,15,21,28.90
2015,07,04,15,22,28.90
2015,07,04,15,23,28.90
2015,07,04,15,24,28.90
2015,07,04,15,25,28.90
2015,07,04,15,26,28.90
2015,07,04,15,27,28.90
2015,07,04,15,28,28.90
2015,07,04,15,29,28.90
2015,07,04,15,30,28.90
2015,07,04,15,31,28.90
2015,07,04,15,32,28.90
2015,07,04,15,33,28.90
2015,07,04,15,34,29.00
2015,07,04,15,35,29.00
2015,07,04,15,36,29.10
2015,07,04,15,37,29.30
2015,07,04,15,38,29.50
2015,07,04,15,39,29.60
2015,07,04,15,40,29.70
2015,07,04,15,41,29.80
2015,07,04,15,42,29.90
2015,07,04,15,43,30.00
2015,07,04,15,44,30.10
2015,07,04,15,45,29.90
2015,07,04,15,46,29.90
2015,07,04,15,47,29.80
2015,07,04,15,48,29.80
2015,07,04,15,49,29.70
2015,07,04,15,50,29.70
2015,07,04,15,51,29.40
2015,07,04,15,52,29.20
2015,07,04,15,53,29.00
2015,07,04,15,54,28.90
2015,07,04,15,55,28.70
2015,07,04,15,56,28.50
2015,07,04,15,57,28.40
2015,07,04,15,58,28.30
2015,07,04,15,59,28.30
2015,07,04,16,00,28.10
2015,07,04,16,01,28.00
2015,07,04,16,02,27.80
2015,07,04,16,03,27.70
2015,07,04,16,04,27.70
2015,07,04,16,05,27.80
2015,07,04,16,06,27.90
2015,07,04,16,07,27.90
2015,07,04,16,08,27.90
2015,07,04,16,09,27.90
2015,07,04,16,10,27.90
2015,07,04,16,11,27.80
2015,07,04,16,12,27.80
2015,07,04,16,13,27.80
2015,07,04,16,14,27.80
2015,07,04,16,15,27.80
2015,07,04,16,16,27.70
2015,07,04,16,17,27.70
2015,07,04,16,18,27.60
2015,07,04,16,19,27.60
2015,07,04,16,20,27.60
2015,07,04,16,21,27.50
2015,07,04,16,22,27.40
2015,07,04,16,23,27.40
2015,07,04,16,24,27.40
2015,07,04,16,25,27.40
2015,07,04,16,26,27.50
2015,07,04,16,27,27.60
2015,07,04,16,28,27.70
2015,07,04,16,29,27.90
2015,07,04,16,30,27.90
2015,07,04,16,31,28.00
2015,07,04,16,32,28.00
2015,07,04,16,33,28.00
2015,07,04,16,34,28.00
2015,07,04,16,35,28.00
2015,07,04,16,36,28.10
2015,07,04,16,37,28.10
2015,07,04,16,38,28.20
2015,07,04,16,39,28.10
2015,07,04,16,40,28.10
2015,07,04,16,41,28.10
2015,07,04,16,42,28.10
2015,07,04,16,43,28.00
2015,07,04,16,44,28.00
2015,07,04,16,45,28.10
2015,07,04,16,46,28.10
2015,07,04,16,47,28.00
2015,07,04,16,48,28.00
2015,07,04,16,49,28.00
2015,07,04,16,50,28.10
2015,07,04,16,51,28.10
2015,07,04,16,52,28.30
2015,07,04,16,53,28.40
2015,07,04,16,54,28.50
2015,07,04,16,55,28.60
2015,07,04,16,56,28.60
2015,07,04,16,57,28.60
2015,07,04,16,58,28.50
2015,07,04,16,59,28.40
2015,07,04,17,00,28.40
2015,07,04,17,01,28.40
2015,07,04,17,02,28.40
2015,07,04,17,03,28.50
2015,07,04,17,04,28.60
2015,07,04,17,05,28.60
2015,07,04,17,06,28.60
2015,07,04,17,07,28.60
2015,07,04,17,08,28.70
2015,07,04,17,09,28.60
2015,07,04,17,10,28.50
2015,07,04,17,11,28.40
2015,07,04,17,12,28.30
2015,07,04,17,13,28.40
2015,07,04,17,14,28.50
2015,07,04,17,15,28.60
2015,07,04,17,16,28.70
2015,07,04,17,17,28.70
2015,07,04,17,18,28.70
2015,07,04,17,19,28.80
2015,07,04,17,20,28.80
2015,07,04,17,21,28.80
2015,07,04,17,22,28.80
2015,07,04,17,23,28.80
2015,07,04,17,24,28.80
2015,07,04,17,25,28.80
2015,07,04,17,26,28.80
2015,07,04,17,27,28.90
2015,07,04,17,28,28.80
2015,07,04,17,29,28.80
2015,07,04,17,30,28.60
2015,07,04,17,31,28.50
2015,07,04,17,32,28.30
2015,07,04,17,33,28.20
2015,07,04,17,34,27.90
2015,07,04,17,35,27.70
2015,07,04,17,36,27.60
2015,07,04,17,37,27.40
2015,07,04,17,38,27.30
2015,07,04,17,39,27.20
2015,07,04,17,40,27.20
2015,07,04,17,41,27.20
2015,07,04,17,42,27.10
2015,07,04,17,43,27.10
2015,07,04,17,44,27.20
2015,07,04,17,45,27.20
2015,07,04,17,46,27.20
2015,07,04,17,47,27.20
2015,07,04,17,48,27.20
2015,07,04,17,49,27.20
2015,07,04,17,50,27.20
2015,07,04,17,51,27.20
2015,07,04,17,52,27.20
2015,07,04,17,53,27.20